When you browse on this site, cookies collect data to enhance your experience and personalize the content and advertising you see.
Visit our Privacy Policy to learn more. By continuing to use the site, you agree to this use of cookies and data.
EN

Hourly Weather Zhytomyr

Today, 11 August, Tuesday

Time Temperature Precipitation Wind Pressure Humidity
00:00 +19°C° 0 mm 1 mps 743 mmHg 82%
01:00 +19°C° 0 mm 1 mps 743 mmHg 83%
02:00 +18°C° 0 mm 1 mps 744 mmHg 83%
03:00 +18°C° 0 mm 1 mps 744 mmHg 84%
04:00 +18°C° 0 mm 1 mps 743 mmHg 86%
05:00 +16°C° 0 mm 1 mps 743 mmHg 87%
06:00 +18°C° 0 mm 2 mps 743 mmHg 82%
07:00 +20°C° 0 mm 2 mps 744 mmHg 77%
08:00 +23°C° 0 mm 2 mps 744 mmHg 73%
09:00 +24°C° 0.1 mm 2 mps 744 mmHg 68%
10:00 +25°C° 0.1 mm 2 mps 744 mmHg 64%
11:00 +26°C° 0.1 mm 2 mps 743 mmHg 60%
12:00 +27°C° 0.5 mm 3 mps 743 mmHg 58%
13:00 +27°C° 0.5 mm 3 mps 743 mmHg 57%
14:00 +28°C° 0.5 mm 3 mps 743 mmHg 55%
15:00 +27°C° 0.6 mm 3 mps 743 mmHg 59%
16:00 +27°C° 0.6 mm 3 mps 743 mmHg 62%
17:00 +26°C° 0.6 mm 3 mps 743 mmHg 65%
18:00 +25°C° 0.3 mm 3 mps 743 mmHg 71%
19:00 +23°C° 0.3 mm 2 mps 743 mmHg 77%
20:00 +20°C° 0.3 mm 2 mps 743 mmHg 83%
21:00 +20°C° 0.4 mm 2 mps 743 mmHg 85%
22:00 +19°C° 0.4 mm 3 mps 743 mmHg 88%
23:00 +18°C° 0.4 mm 3 mps 743 mmHg 90%

Tomorrow, 12 August, Wednesday

Time Temperature Precipitation Wind Pressure Humidity
00:00 +18°C° 0 mm 3 mps 743 mmHg 92%
01:00 +17°C° 0 mm 3 mps 743 mmHg 95%
02:00 +16°C° 0 mm 3 mps 743 mmHg 97%
03:00 +14°C° 0 mm 3 mps 744 mmHg 96%
04:00 +14°C° 0 mm 3 mps 744 mmHg 96%
05:00 +13°C° 0 mm 3 mps 744 mmHg 96%
06:00 +14°C° 0 mm 3 mps 744 mmHg 90%
07:00 +15°C° 0 mm 4 mps 744 mmHg 84%
08:00 +17°C° 0 mm 4 mps 745 mmHg 79%
09:00 +18°C° 0 mm 4 mps 745 mmHg 72%
10:00 +20°C° 0 mm 4 mps 745 mmHg 65%
11:00 +21°C° 0 mm 4 mps 745 mmHg 59%
12:00 +21°C° 0 mm 4 mps 745 mmHg 57%
13:00 +21°C° 0 mm 4 mps 745 mmHg 55%
14:00 +22°C° 0 mm 4 mps 745 mmHg 53%
15:00 +21°C° 0 mm 4 mps 745 mmHg 55%
16:00 +21°C° 0 mm 4 mps 745 mmHg 57%
17:00 +21°C° 0 mm 4 mps 745 mmHg 60%
18:00 +19°C° 0 mm 3 mps 746 mmHg 65%
19:00 +17°C° 0 mm 3 mps 746 mmHg 70%
20:00 +16°C° 0 mm 2 mps 746 mmHg 76%
21:00 +15°C° 0 mm 2 mps 746 mmHg 79%
22:00 +14°C° 0 mm 1 mps 746 mmHg 82%
23:00 +13°C° 0 mm 1 mps 746 mmHg 85%

Day after tomorrow, 13 August, Thursday

Time Temperature Precipitation Wind Pressure Humidity
00:00 +13°C° 0 mm 1 mps 746 mmHg 86%
01:00 +13°C° 0 mm 1 mps 746 mmHg 88%
02:00 +12°C° 0 mm 1 mps 746 mmHg 89%
03:00 +12°C° 0 mm 1 mps 746 mmHg 90%
04:00 +12°C° 0 mm 2 mps 746 mmHg 91%
05:00 +10°C° 0 mm 2 mps 746 mmHg 92%
06:00 +13°C° 0 mm 2 mps 746 mmHg 85%
07:00 +15°C° 0 mm 2 mps 746 mmHg 78%
08:00 +17°C° 0 mm 2 mps 746 mmHg 71%
09:00 +18°C° 0 mm 2 mps 746 mmHg 66%
10:00 +19°C° 0 mm 2 mps 746 mmHg 61%
11:00 +21°C° 0 mm 3 mps 746 mmHg 56%
12:00 +21°C° 0.1 mm 3 mps 746 mmHg 56%
13:00 +21°C° 0.1 mm 3 mps 746 mmHg 56%
14:00 +21°C° 0.1 mm 3 mps 745 mmHg 57%
15:00 +21°C° 0 mm 3 mps 745 mmHg 58%
16:00 +21°C° 0 mm 3 mps 745 mmHg 60%
17:00 +20°C° 0 mm 2 mps 745 mmHg 61%
18:00 +19°C° 0 mm 2 mps 745 mmHg 65%
19:00 +18°C° 0 mm 2 mps 745 mmHg 68%
20:00 +16°C° 0 mm 1 mps 745 mmHg 71%
21:00 +15°C° 0 mm 1 mps 745 mmHg 73%
22:00 +15°C° 0 mm 1 mps 745 mmHg 75%
23:00 +14°C° 0 mm 1 mps 745 mmHg 77%

14 August, Friday

Time Temperature Precipitation Wind Pressure Humidity
00:00 +13°C° 0 mm 1 mps 745 mmHg 79%
01:00 +12°C° 0 mm 1 mps 745 mmHg 81%
02:00 +12°C° 0 mm 1 mps 745 mmHg 84%
03:00 +12°C° 0 mm 1 mps 745 mmHg 84%
04:00 +10°C° 0 mm 0 mps 745 mmHg 85%
05:00 +10°C° 0 mm 0 mps 745 mmHg 85%
06:00 +13°C° 0 mm 1 mps 745 mmHg 79%
07:00 +15°C° 0 mm 1 mps 745 mmHg 73%
08:00 +18°C° 0 mm 1 mps 745 mmHg 67%
09:00 +19°C° 0 mm 1 mps 745 mmHg 63%
10:00 +19°C° 0 mm 2 mps 746 mmHg 59%
11:00 +21°C° 0 mm 2 mps 746 mmHg 55%
12:00 +21°C° 0 mm 2 mps 745 mmHg 54%
13:00 +22°C° 0 mm 1 mps 745 mmHg 53%
14:00 +23°C° 0 mm 1 mps 745 mmHg 52%
15:00 +23°C° 0.1 mm 1 mps 745 mmHg 53%
16:00 +23°C° 0.1 mm 2 mps 745 mmHg 54%
17:00 +23°C° 0.1 mm 2 mps 745 mmHg 55%
18:00 +20°C° 0 mm 2 mps 745 mmHg 61%
19:00 +18°C° 0 mm 2 mps 745 mmHg 66%
20:00 +16°C° 0 mm 1 mps 745 mmHg 72%
21:00 +15°C° 0 mm 1 mps 745 mmHg 73%
22:00 +15°C° 0 mm 2 mps 745 mmHg 74%
23:00 +14°C° 0 mm 2 mps 745 mmHg 75%

15 August, Saturday

Time Temperature Precipitation Wind Pressure Humidity
00:00 +14°C° 0 mm 2 mps 745 mmHg 76%
01:00 +14°C° 0 mm 1 mps 745 mmHg 76%
02:00 +13°C° 0 mm 1 mps 745 mmHg 77%
03:00 +13°C° 0 mm 1 mps 745 mmHg 78%
04:00 +12°C° 0 mm 1 mps 745 mmHg 79%
05:00 +12°C° 0 mm 1 mps 745 mmHg 80%
06:00 +14°C° 0 mm 1 mps 745 mmHg 75%
07:00 +16°C° 0 mm 1 mps 746 mmHg 69%
08:00 +18°C° 0 mm 1 mps 746 mmHg 64%
09:00 +20°C° 0 mm 1 mps 746 mmHg 60%
10:00 +20°C° 0 mm 2 mps 746 mmHg 56%
11:00 +21°C° 0 mm 2 mps 746 mmHg 53%
12:00 +21°C° 0 mm 2 mps 746 mmHg 52%
13:00 +22°C° 0 mm 3 mps 746 mmHg 52%
14:00 +22°C° 0 mm 3 mps 746 mmHg 51%
15:00 +23°C° 0 mm 2 mps 745 mmHg 52%
16:00 +23°C° 0 mm 2 mps 745 mmHg 53%
17:00 +23°C° 0 mm 2 mps 745 mmHg 54%
18:00 +20°C° 0 mm 2 mps 745 mmHg 59%
19:00 +19°C° 0 mm 1 mps 745 mmHg 65%
20:00 +16°C° 0 mm 1 mps 745 mmHg 70%
21:00 +15°C° 0 mm 1 mps 745 mmHg 72%
22:00 +15°C° 0 mm 1 mps 745 mmHg 74%
23:00 +14°C° 0 mm 1 mps 745 mmHg 76%

16 August, Sunday

Time Temperature Precipitation Wind Pressure Humidity
00:00 +13°C° 0 mm 0 mps 745 mmHg 77%
01:00 +13°C° 0 mm 0 mps 745 mmHg 78%
02:00 +13°C° 0 mm 0 mps 746 mmHg 79%
03:00 +12°C° 0 mm 0 mps 745 mmHg 80%
04:00 +12°C° 0 mm 0 mps 745 mmHg 81%
05:00 +12°C° 0 mm 0 mps 745 mmHg 82%
06:00 +15°C° 0 mm 1 mps 746 mmHg 77%
07:00 +16°C° 0 mm 1 mps 746 mmHg 71%
08:00 +19°C° 0 mm 1 mps 746 mmHg 66%
09:00 +21°C° 0 mm 1 mps 746 mmHg 62%
10:00 +22°C° 0 mm 1 mps 746 mmHg 59%
11:00 +23°C° 0 mm 2 mps 746 mmHg 56%
12:00 +24°C° 0 mm 2 mps 746 mmHg 56%
13:00 +24°C° 0 mm 2 mps 746 mmHg 56%
14:00 +24°C° 0 mm 2 mps 746 mmHg 55%
15:00 +24°C° 0 mm 2 mps 745 mmHg 56%
16:00 +24°C° 0 mm 2 mps 745 mmHg 57%
17:00 +24°C° 0 mm 3 mps 745 mmHg 58%
18:00 +22°C° 0.1 mm 3 mps 745 mmHg 66%
19:00 +20°C° 0.1 mm 2 mps 745 mmHg 73%
20:00 +18°C° 0.1 mm 2 mps 745 mmHg 81%
21:00 +17°C° 0.1 mm 2 mps 745 mmHg 83%
22:00 +17°C° 0.1 mm 2 mps 745 mmHg 86%
23:00 +16°C° 0.1 mm 2 mps 745 mmHg 88%
Show more